#timestamp,LO_Frequency,Hit 
1499526015.2,286041155.6,N
1499526035.0,286041155.1,N
1499526035.9,286041155.1,N
1499526055.7,286041155.2,N
1499526075.6,286041155.5,N
1499526095.4,286041155.7,N
1499526115.3,286041155.2,N
1499526135.1,286041155.1,N
1499526136.0,286041155.1,N
1499526155.8,286041154.8,N
1499526175.7,286041156.7,N
1499526195.5,286041155.0,N
1499526215.4,286041155.5,N
1499526235.2,286041155.0,N
1499526255.0,286041156.1,N
1499526255.9,286041156.1,N
1499526275.8,286041153.7,N
1499526295.6,286041153.2,N
1499526315.4,286041156.0,N
1499526335.3,286041156.3,N
1499526355.1,286041156.3,N
1499526375.9,286041154.0,N
1499526395.7,286041151.8,N
1499526415.5,286041154.1,N
1499526435.4,286041154.7,N
1499526455.2,286041154.7,N
1499526475.0,286041151.6,N
1499526475.9,286041151.6,N
1499526495.8,286041154.3,N
1499526515.6,286041152.3,N
1499526535.5,286041153.0,N
1499526555.3,286041151.7,N
1499526575.1,286041151.6,N
1499526595.9,286041151.8,N
1499526615.7,286041151.7,N
1499526635.6,286041152.1,N
1499526655.4,286041151.8,N
1499526675.2,286041152.3,N
1499526695.1,286041152.0,N
1499526696.0,286041152.0,N
1499526715.8,286041153.0,N
1499526735.6,286041152.4,N
1499526755.5,286041152.7,N
1499526775.3,286041153.1,N
1499526795.2,286041150.1,N
1499526815.9,286041150.8,N
1499526835.7,286041150.1,N
1499526855.6,286041151.4,N
1499526875.4,286041148.8,N
1499526895.3,286041151.5,N
1499526915.1,286041148.4,N
1499526916.0,286041148.4,N
1499526935.8,286041149.0,N
1499526955.7,286041151.4,N
1499526975.5,286041148.8,N
1499526995.3,286041148.9,N
1499527015.2,286041148.4,N
1499527035.0,286041151.1,N
1499527035.9,286041151.1,N
1499527055.8,286041151.1,N
1499527075.6,286041148.9,N
1499527095.4,286041150.9,N
1499527115.3,286041150.9,N
1499527135.1,286041151.0,N
1499527155.8,286041151.3,N
1499527175.7,286041150.8,N
1499527195.5,286041151.4,N
1499527215.4,286041157.3,N
1499527235.2,286041158.6,N
1499527255.0,286041162.3,N
1499527255.9,286041162.3,N
1499527275.8,286041165.4,N
1499527295.6,286041161.2,N
1499527315.5,286041162.6,N
1499527335.3,286041160.4,N
1499527355.1,286041159.2,N
1499527375.9,286041157.8,N
1499527395.7,286041155.7,N
1499527415.5,286041156.1,N
1499527435.4,286041156.3,N
1499527455.2,286041156.2,N
1499527475.1,286041153.3,N
1499527476.0,286041153.3,N
1499527495.8,286041153.2,N
1499527515.6,286041155.8,N
1499527535.5,286041156.3,N
1499527555.3,286041156.1,N
1499527575.1,286041153.5,N
1499527595.9,286041153.3,N
1499527615.7,286041156.3,N
1499527635.6,286041156.0,N
1499527655.4,286041153.2,N
1499527675.2,286041153.3,N
1499527695.1,286041153.9,N
1499527696.0,286041153.9,N
1499527715.8,286041153.6,N
1499527735.6,286041155.9,N
1499527755.5,286041155.2,N
1499527775.3,286041154.9,N
1499527795.2,286041155.2,N
1499527815.9,286041155.8,N
1499527835.7,286041155.8,N
1499527855.6,286041155.1,N
1499527875.4,286041156.0,N
1499527895.2,286041155.1,N
1499527915.1,286041155.6,N
1499527916.0,286041155.6,N
1499527935.8,286041155.2,N
1499527955.7,286041154.9,N
1499527975.5,286041154.8,N
1499527995.3,286041154.9,N
1499528015.2,286041154.9,N
1499528035.0,286041157.8,N
1499528035.9,286041157.8,N
1499528055.7,286041157.7,N
1499528075.6,286041154.8,N
1499528095.4,286041157.8,N
1499528115.3,286041157.3,N
1499528135.1,286041155.2,N
1499528155.8,286041155.5,N
1499528175.7,286041156.7,N
1499528195.5,286041157.2,N
1499528215.4,286041157.0,N
1499528235.2,286041157.8,N
1499528255.0,286041154.8,N
1499528255.9,286041154.8,N
1499528275.8,286041157.4,N
1499528295.6,286041157.4,N
1499528315.5,286041157.0,N
1499528335.3,286041156.9,N
1499528355.1,286041159.2,N
1499528375.9,286041156.4,N
1499528395.7,286041157.2,N
1499528415.5,286041157.1,N
1499528435.4,286041157.2,N
1499528455.2,286041156.9,N
1499528475.1,286041157.1,N
1499528476.0,286041157.1,N
1499528495.8,286041156.9,N
1499528515.6,286041157.1,N
1499528535.5,286041157.1,N
1499528555.3,286041156.5,N
1499528575.1,286041158.9,N
1499528595.9,286041156.7,N
1499528615.7,286041157.1,N
1499528635.6,286041156.6,N
1499528655.4,286041156.6,N
1499528675.2,286041157.1,N
1499528695.1,286041156.7,N
1499528696.0,286041156.7,N
1499528715.8,286041157.8,N
1499528735.6,286041157.5,N
1499528755.5,286041156.9,N
1499528775.3,286041156.5,N
1499528795.2,286041156.4,N
1499528815.9,286041154.8,N
1499528835.7,286041157.1,N
1499528855.6,286041157.2,N
1499528875.4,286041157.1,N
1499528895.2,286041157.3,N
1499528915.1,286041154.8,N
1499528916.0,286041154.8,N
1499528935.8,286041155.5,N
1499528955.7,286041155.3,N
1499528975.5,286041157.3,N
1499528995.3,286041156.9,N
1499529015.2,286041159.4,N
1499529035.0,286041159.3,N
1499529035.9,286041159.3,N
1499529055.8,286041156.4,N
1499529075.6,286041157.0,N
1499529095.4,286041159.1,N
1499529115.3,286041159.2,N
1499529135.1,286041159.2,N
1499529155.8,286041159.1,N
1499529175.7,286041156.5,N
1499529195.5,286041159.3,N
1499529215.4,286041156.5,N
1499529235.2,286041158.8,N
1499529255.0,286041160.7,N
1499529255.9,286041160.7,N
1499529275.8,286041158.6,N
1499529295.6,286041156.5,N
1499529315.4,286041159.1,N
1499529335.3,286041156.4,N
1499529355.1,286041156.5,N
1499529375.9,286041156.8,N
1499529395.7,286041156.5,N
1499529415.5,286041157.2,N
1499529435.4,286041157.1,N
1499529455.2,286041156.9,N
1499529475.0,286041159.4,N
1499529476.0,286041159.4,N
1499529495.8,286041161.1,N
1499529515.6,286041158.8,N
1499529535.5,286041156.9,N
1499529555.3,286041159.5,N
1499529575.1,286041159.2,N
1499529595.9,286041159.1,N
